Time,TemperatureF,DewpointF,PressureIn,WindDirection,WindDirectionDegrees,WindSpeedMPH,WindSpeedGustMPH,Humidity,HourlyPrecipIn,Conditions,Clouds,dailyrainin,SoftwareType,DateUTC
2013-04-28 00:14:00,58.3,13.7,29.63,SE,135,6.3,-999.0,17,-99.99,,,0.04,Acu-Link.com,2013-04-28 05:14:00,
2013-04-28 00:29:00,58.5,13.9,29.64,SE,135,8.3,-999.0,17,-99.99,,,0.04,Acu-Link.com,2013-04-28 05:29:00,
2013-04-28 00:44:00,58.5,12.5,29.65,SE,135,7.3,-999.0,16,-99.99,,,0.05,Acu-Link.com,2013-04-28 05:44:00,
2013-04-28 01:00:00,58.5,11.0,29.66,SSE,157,8.3,-999.0,15,-99.99,,,0.05,Acu-Link.com,2013-04-28 06:00:00,
2013-04-28 01:15:00,58.3,10.9,29.66,SSE,157,6.3,-999.0,15,-99.99,,,0.06,Acu-Link.com,2013-04-28 06:15:00,
2013-04-28 01:30:00,58.3,9.3,29.65,SSE,157,4.2,-999.0,14,-99.99,,,0.06,Acu-Link.com,2013-04-28 06:30:00,
2013-04-28 01:46:00,58.6,9.6,29.66,SE,135,4.7,-999.0,14,-99.99,,,0.06,Acu-Link.com,2013-04-28 06:46:00,
2013-04-28 02:01:00,58.3,18.6,29.63,SE,135,4.7,-999.0,21,-99.99,,,0.06,Acu-Link.com,2013-04-28 07:01:00,
2013-04-28 02:16:00,58.3,18.6,29.63,SE,135,4.2,-999.0,21,-99.99,,,0.06,Acu-Link.com,2013-04-28 07:16:00,
2013-04-28 02:31:00,58.1,16.1,29.61,SSE,157,4.2,-999.0,19,-99.99,,,0.06,Acu-Link.com,2013-04-28 07:31:00,
2013-04-28 02:46:00,58.1,16.1,29.61,SE,135,5.8,-999.0,19,-99.99,,,0.06,Acu-Link.com,2013-04-28 07:46:00,
2013-04-28 03:01:00,58.1,16.1,29.62,SE,135,4.2,-999.0,19,-99.99,,,0.06,Acu-Link.com,2013-04-28 08:01:00,
2013-04-28 03:16:00,58.3,17.4,29.62,ESE,112,9.9,-999.0,20,-99.99,,,0.06,Acu-Link.com,2013-04-28 08:16:00,
2013-04-28 03:32:00,58.3,17.4,29.60,SE,135,6.8,-999.0,20,-99.99,,,0.06,Acu-Link.com,2013-04-28 08:32:00,
2013-04-28 03:47:00,58.3,17.4,29.61,SE,135,8.9,-999.0,20,-99.99,,,0.06,Acu-Link.com,2013-04-28 08:47:00,
2013-04-28 04:02:00,58.3,17.4,29.61,SE,135,5.8,-999.0,20,-99.99,,,0.06,Acu-Link.com,2013-04-28 09:02:00,
2013-04-28 04:17:00,58.3,16.2,29.62,South,180,5.3,-999.0,19,-99.99,,,0.06,Acu-Link.com,2013-04-28 09:17:00,
2013-04-28 04:32:00,58.3,16.2,29.61,SE,135,4.7,-999.0,19,-99.99,,,0.06,Acu-Link.com,2013-04-28 09:32:00,
2013-04-28 04:47:00,58.5,16.4,29.61,SE,135,5.3,-999.0,19,-99.99,,,0.06,Acu-Link.com,2013-04-28 09:47:00,
2013-04-28 05:03:00,58.3,15.0,29.61,SSE,157,1.1,-999.0,18,-99.99,,,0.06,Acu-Link.com,2013-04-28 10:03:00,
2013-04-28 05:18:00,58.5,13.9,29.62,SW,225,0.0,-999.0,17,-99.99,,,0.06,Acu-Link.com,2013-04-28 10:18:00,
2013-04-28 05:33:00,58.5,13.9,29.61,South,180,0.0,-999.0,17,-99.99,,,0.06,Acu-Link.com,2013-04-28 10:33:00,
2013-04-28 05:48:00,58.6,17.7,29.62,ESE,112,0.0,-999.0,20,-99.99,,,0.06,Acu-Link.com,2013-04-28 10:48:00,
2013-04-28 06:03:00,58.6,18.8,29.62,South,180,0.0,-999.0,21,-99.99,,,0.06,Acu-Link.com,2013-04-28 11:03:00,
2013-04-28 06:18:00,58.6,18.8,29.62,South,180,0.0,-999.0,21,-99.99,,,0.06,Acu-Link.com,2013-04-28 11:18:00,
2013-04-28 06:33:00,59.0,19.1,29.62,South,180,0.0,-999.0,21,-99.99,,,0.06,Acu-Link.com,2013-04-28 11:33:00,
2013-04-28 06:48:00,59.4,18.3,29.64,South,180,0.0,-999.0,20,-99.99,,,0.06,Acu-Link.com,2013-04-28 11:48:00,
2013-04-28 07:03:00,58.6,17.7,29.65,West,270,4.2,-999.0,20,-99.99,,,0.06,Acu-Link.com,2013-04-28 12:03:00,
2013-04-28 07:19:00,58.3,16.2,29.65,WSW,247,1.1,-999.0,19,-99.99,,,0.06,Acu-Link.com,2013-04-28 12:19:00,
2013-04-28 07:34:00,59.0,16.8,29.65,West,270,4.7,-999.0,19,-99.99,,,0.06,Acu-Link.com,2013-04-28 12:34:00,
2013-04-28 07:49:00,58.8,9.7,29.66,SSE,157,2.7,-999.0,14,-99.99,,,0.06,Acu-Link.com,2013-04-28 12:49:00,
2013-04-28 08:04:00,58.1,-16.8,29.66,West,270,3.2,-999.0,4,-99.99,,,0.06,Acu-Link.com,2013-04-28 13:04:00,
2013-04-28 08:19:00,57.4,5.2,29.67,WNW,292,2.7,-999.0,12,-99.99,,,0.06,Acu-Link.com,2013-04-28 13:19:00,
2013-04-28 08:34:00,57.7,-42.3,29.67,WNW,292,3.2,-999.0,0,-99.99,,,0.06,Acu-Link.com,2013-04-28 13:34:00,
2013-04-28 08:49:00,57.4,44.1,29.68,WSW,247,4.2,-999.0,61,-99.99,,,0.06,Acu-Link.com,2013-04-28 13:49:00,
2013-04-28 09:04:00,56.1,55.5,29.68,West,270,1.7,-999.0,98,-99.99,,,0.06,Acu-Link.com,2013-04-28 14:04:00,
2013-04-28 09:19:00,57.0,38.5,29.68,ESE,112,1.1,-999.0,50,-99.99,,,0.06,Acu-Link.com,2013-04-28 14:19:00,
2013-04-28 09:35:00,60.3,59.7,29.67,WSW,247,2.7,-999.0,98,-99.99,,,0.06,Acu-Link.com,2013-04-28 14:35:00,
2013-04-28 09:50:00,60.8,60.2,29.67,West,270,3.2,-999.0,98,-99.99,,,0.06,Acu-Link.com,2013-04-28 14:50:00,
2013-04-28 10:05:00,63.1,62.5,29.67,ENE,67,3.7,-999.0,98,-99.99,,,0.06,Acu-Link.com,2013-04-28 15:05:00,
2013-04-28 10:20:00,61.9,61.6,29.67,WNW,292,4.2,-999.0,99,-99.99,,,0.06,Acu-Link.com,2013-04-28 15:20:00,
2013-04-28 10:35:00,62.8,62.5,29.66,West,270,3.7,-999.0,99,-99.99,,,0.06,Acu-Link.com,2013-04-28 15:35:00,
2013-04-28 10:50:00,61.5,61.2,29.67,ESE,112,2.2,-999.0,99,-99.99,,,0.06,Acu-Link.com,2013-04-28 15:50:00,
2013-04-28 11:05:00,61.7,61.4,29.67,WNW,292,3.7,-999.0,99,-99.99,,,0.06,Acu-Link.com,2013-04-28 16:05:00,
2013-04-28 11:20:00,62.6,62.3,29.67,West,270,3.2,-999.0,99,-99.99,,,0.06,Acu-Link.com,2013-04-28 16:20:00,
2013-04-28 11:35:00,64.0,63.7,29.67,West,270,9.4,-999.0,99,-99.99,,,0.06,Acu-Link.com,2013-04-28 16:35:00,
2013-04-28 11:51:00,63.0,62.7,29.66,West,270,7.8,-999.0,99,-99.99,,,0.06,Acu-Link.com,2013-04-28 16:51:00,
2013-04-28 12:06:00,63.0,62.7,29.68,West,270,2.7,-999.0,99,-99.99,,,0.06,Acu-Link.com,2013-04-28 17:06:00,
2013-04-28 12:21:00,63.1,62.8,29.68,WNW,292,2.7,-999.0,99,-99.99,,,0.06,Acu-Link.com,2013-04-28 17:21:00,
2013-04-28 12:37:00,61.9,61.6,29.68,WNW,292,7.8,-999.0,99,-99.99,,,0.06,Acu-Link.com,2013-04-28 17:37:00,
2013-04-28 12:52:00,62.1,61.8,29.68,West,270,4.7,-999.0,99,-99.99,,,0.06,Acu-Link.com,2013-04-28 17:52:00,
2013-04-28 13:07:00,60.8,60.5,29.68,West,270,3.7,-999.0,99,-99.99,,,0.06,Acu-Link.com,2013-04-28 18:07:00,
2013-04-28 13:22:00,61.2,60.9,29.68,West,270,5.3,-999.0,99,-99.99,,,0.06,Acu-Link.com,2013-04-28 18:22:00,
2013-04-28 13:37:00,61.2,60.9,29.68,West,270,2.2,-999.0,99,-99.99,,,0.06,Acu-Link.com,2013-04-28 18:37:00,
2013-04-28 13:52:00,61.9,61.6,29.67,West,270,3.7,-999.0,99,-99.99,,,0.06,Acu-Link.com,2013-04-28 18:52:00,
2013-04-28 14:07:00,62.1,61.8,29.67,West,270,5.8,-999.0,99,-99.99,,,0.06,Acu-Link.com,2013-04-28 19:07:00,
2013-04-28 14:23:00,61.9,61.6,29.67,WSW,247,6.8,-999.0,99,-99.99,,,0.06,Acu-Link.com,2013-04-28 19:23:00,
2013-04-28 14:38:00,61.5,61.2,29.67,WNW,292,8.3,-999.0,99,-99.99,,,0.06,Acu-Link.com,2013-04-28 19:38:00,
2013-04-28 14:53:00,60.8,60.5,29.66,WNW,292,5.3,-999.0,99,-99.99,,,0.06,Acu-Link.com,2013-04-28 19:53:00,
2013-04-28 15:08:00,60.6,60.3,29.65,West,270,4.2,-999.0,99,-99.99,,,0.06,Acu-Link.com,2013-04-28 20:08:00,
2013-04-28 15:23:00,60.4,60.1,29.65,West,270,4.2,-999.0,99,-99.99,,,0.06,Acu-Link.com,2013-04-28 20:23:00,
2013-04-28 15:38:00,60.6,60.3,29.65,West,270,2.7,-999.0,99,-99.99,,,0.06,Acu-Link.com,2013-04-28 20:38:00,
2013-04-28 15:53:00,61.9,61.6,29.64,West,270,1.7,-999.0,99,-99.99,,,0.06,Acu-Link.com,2013-04-28 20:53:00,
2013-04-28 16:08:00,61.9,61.6,29.65,NW,315,2.7,-999.0,99,-99.99,,,0.06,Acu-Link.com,2013-04-28 21:08:00,
2013-04-28 16:24:00,62.2,61.9,29.66,NW,315,2.2,-999.0,99,-99.99,,,0.06,Acu-Link.com,2013-04-28 21:24:00,
2013-04-28 16:39:00,62.4,62.1,29.66,WNW,292,3.2,-999.0,99,-99.99,,,0.06,Acu-Link.com,2013-04-28 21:39:00,
2013-04-28 16:54:00,62.1,61.8,29.66,West,270,3.2,-999.0,99,-99.99,,,0.06,Acu-Link.com,2013-04-28 21:54:00,
2013-04-28 17:09:00,63.9,63.6,29.66,West,270,3.2,-999.0,99,-99.99,,,0.06,Acu-Link.com,2013-04-28 22:09:00,
2013-04-28 17:24:00,64.4,64.1,29.66,West,270,8.9,-999.0,99,-99.99,,,0.06,Acu-Link.com,2013-04-28 22:24:00,
2013-04-28 17:39:00,62.6,62.3,29.65,West,270,2.7,-999.0,99,-99.99,,,0.06,Acu-Link.com,2013-04-28 22:39:00,
2013-04-28 17:54:00,62.6,62.3,29.66,West,270,5.3,-999.0,99,-99.99,,,0.06,Acu-Link.com,2013-04-28 22:54:00,
2013-04-28 18:09:00,61.5,61.2,29.66,West,270,6.8,-999.0,99,-99.99,,,0.06,Acu-Link.com,2013-04-28 23:09:00,
2013-04-28 18:24:00,61.0,60.7,29.65,WNW,292,2.7,-999.0,99,-99.99,,,0.06,Acu-Link.com,2013-04-28 23:24:00,
2013-04-28 18:39:00,61.5,61.2,29.65,West,270,2.2,-999.0,99,-99.99,,,0.06,Acu-Link.com,2013-04-28 23:39:00,
2013-04-28 18:55:00,60.4,60.1,29.65,West,270,6.8,-999.0,99,-99.99,,,0.06,Acu-Link.com,2013-04-28 23:55:00,
2013-04-28 19:10:00,59.9,59.6,29.65,West,270,3.2,-999.0,99,-99.99,,,0.06,Acu-Link.com,2013-04-29 00:10:00,
2013-04-28 19:25:00,59.2,58.9,29.66,West,270,3.7,-999.0,99,-99.99,,,0.06,Acu-Link.com,2013-04-29 00:25:00,
2013-04-28 19:40:00,58.5,58.2,29.66,West,270,3.7,-999.0,99,-99.99,,,0.06,Acu-Link.com,2013-04-29 00:40:00,
2013-04-28 19:55:00,57.4,57.1,29.67,West,270,1.1,-999.0,99,-99.99,,,0.06,Acu-Link.com,2013-04-29 00:55:00,
2013-04-28 20:11:00,55.8,55.5,29.67,West,270,0.0,-999.0,99,-99.99,,,0.06,Acu-Link.com,2013-04-29 01:11:00,
2013-04-28 20:26:00,53.6,53.3,29.67,West,270,0.0,-999.0,99,-99.99,,,0.06,Acu-Link.com,2013-04-29 01:26:00,
2013-04-28 20:41:00,53.8,53.5,29.68,West,270,0.0,-999.0,99,-99.99,,,0.06,Acu-Link.com,2013-04-29 01:41:00,
2013-04-28 20:56:00,53.2,52.9,29.68,West,270,0.0,-999.0,99,-99.99,,,0.06,Acu-Link.com,2013-04-29 01:56:00,
2013-04-28 21:11:00,54.7,54.4,29.68,West,270,0.0,-999.0,99,-99.99,,,0.06,Acu-Link.com,2013-04-29 02:11:00,
2013-04-28 21:26:00,54.9,54.6,29.67,West,270,0.0,-999.0,99,-99.99,,,0.06,Acu-Link.com,2013-04-29 02:26:00,
2013-04-28 21:42:00,54.9,54.6,29.68,West,270,0.0,-999.0,99,-99.99,,,0.06,Acu-Link.com,2013-04-29 02:42:00,
2013-04-28 21:57:00,54.9,54.6,29.68,WNW,292,3.2,-999.0,99,-99.99,,,0.06,Acu-Link.com,2013-04-29 02:57:00,
2013-04-28 22:12:00,54.7,54.4,29.68,West,270,0.0,-999.0,99,-99.99,,,0.06,Acu-Link.com,2013-04-29 03:12:00,
2013-04-28 22:27:00,53.1,52.8,29.68,West,270,0.0,-999.0,99,-99.99,,,0.06,Acu-Link.com,2013-04-29 03:27:00,
2013-04-28 22:42:00,52.0,51.7,29.69,West,270,0.0,-999.0,99,-99.99,,,0.06,Acu-Link.com,2013-04-29 03:42:00,
2013-04-28 22:57:00,50.9,50.6,29.68,West,270,0.0,-999.0,99,-99.99,,,0.06,Acu-Link.com,2013-04-29 03:57:00,
2013-04-28 23:12:00,50.7,50.4,29.68,West,270,0.0,-999.0,99,-99.99,,,0.06,Acu-Link.com,2013-04-29 04:12:00,
2013-04-28 23:27:00,50.2,49.9,29.67,West,270,1.1,-999.0,99,-99.99,,,0.06,Acu-Link.com,2013-04-29 04:27:00,
2013-04-28 23:43:00,50.9,50.6,29.69,South,180,2.7,-999.0,99,-99.99,,,0.06,Acu-Link.com,2013-04-29 04:43:00,
2013-04-28 23:58:00,50.9,50.6,29.69,South,180,0.0,-999.0,99,-99.99,,,0.06,Acu-Link.com,2013-04-29 04:58:00,